Regional Weather Roundup
Issued by NWS

Home | Current Version | Previous Version | Graphics & Text | Print | Product List | Glossary On
Versions: 1 2 3 4 5 6 7 8 9 10 11 12 13 14 15 16 17 18 19 20 21 22 23 24 25 26 27 28 29 30 31 32 33 34 35 36 37 38 39 40 41 42 43 44 45 46 47 48 49 50
000
ASUS43 KFSD 222102
RWRSD

WEATHER ROUNDUP FOR SOUTH DAKOTA
NATIONAL WEATHER SERVICE SIOUX FALLS SD
400 PM CDT TUE JUL 22 2014

NOTE: "FAIR" INDICATES FEW OR NO CLOUDS BELOW 12,000 FEET WITH NO
SIGNIFICANT WEATHER AND/OR OBSTRUCTIONS TO VISIBILITY.


SDZ001>005-009-010-012>017-222200-
NORTHWEST AND NORTH CENTRAL SOUTH DAKOTA

CITY           SKY/WX    TMP DP  RH WIND       PRES   REMARKS
BUFFALO          N/A     88  58  36 SE13G20   30.14F
FAITH            N/A     83  59  44 E9        30.22R
MOBRIDGE       SUNNY     84  58  40 VRB5      30.17F
$$

SDZ012>016-024>037-041>051-057-063-072>074-222200-
SOUTHWEST AND SOUTH CENTRAL SOUTH DAKOTA

CITY           SKY/WX    TMP DP  RH WIND       PRES   REMARKS
RAPID CTY ARPT SUNNY     85  60  42 SE14      30.23S
PIERRE         SUNNY     88  57  34 VRB6      30.17S
CUSTER         SUNNY     81  54  39 S10G17    30.37R
ELLSWORTH AFB  SUNNY     86  60  40 S12       30.22S
PHILIP         SUNNY     86  60  41 VRB7      30.20S
PINE RIDGE     SUNNY     85  62  46 E9        30.23F
WINNER         FAIR      86  61  42 VRB3      30.20S
$$

SDZ004>011-016>023-039-040-222200-
NORTHEAST SOUTH DAKOTA

CITY           SKY/WX    TMP DP  RH WIND       PRES   REMARKS
ABERDEEN       SUNNY     80  61  52 NE14      30.18R
WATERTOWN      SUNNY     79  55  43 N10G21    30.18R
SISSETON         N/A     79  59  50 N16G22    30.16R
$$

SDZ017-020-022-023-036>040-048>070-222200-
SOUTHEAST SOUTH DAKOTA

CITY           SKY/WX    TMP DP  RH WIND       PRES   REMARKS
SIOUX FALLS    MOSUNNY   81  61  50 NE9       30.16R
HURON          SUNNY     82  59  45 NE9G17    30.17R
CHAMBERLAIN    SUNNY     85  57  38 NE8       30.19R
MITCHELL       SUNNY     84  59  42 NE13      30.18R
$$

ABBREVIATIONS USED IN REMARKS
   TC - TEMPERATURE IN CELSIUS
  WCI - WIND CHILL INDEX
   HX - HEAT INDEX
  VSB - VISIBILITY




USA.gov is the U.S. government's official web portal to all federal, state and local government web resources and services.